Time,TemperatureF,DewpointF,PressureIn,WindDirection,WindDirectionDegrees,WindSpeedMPH,WindSpeedGustMPH,Humidity,HourlyPrecipIn,Conditions,Clouds,dailyrainin,SolarRadiationWatts/m^2,SoftwareType,DateUTC
2013-08-10 00:00:00,63.1,58.9,28.97,SSE,160,2.3,2.8,86,0.00,CLR,FEW,0.00,0.0,WeatherDisplay:10.37,2013-08-09 22:00:00,
2013-08-10 00:05:00,63.1,58.9,28.97,SSE,160,2.3,2.8,86,0.00,CLR,FEW,0.00,0.0,WeatherDisplay:10.37,2013-08-09 22:05:00,
2013-08-10 00:10:00,63.1,58.9,29.00,SSE,160,2.3,2.8,86,0.00,CLR,FEW,0.00,0.0,WeatherDisplay:10.37,2013-08-09 22:10:00,
2013-08-10 00:15:00,63.1,58.9,29.00,SSE,160,2.3,2.8,86,0.00,CLR,FEW,0.00,0.0,WeatherDisplay:10.37,2013-08-09 22:15:00,
2013-08-10 00:20:00,63.1,58.9,28.97,SSE,160,2.3,2.8,86,0.00,CLR,FEW,0.00,0.0,WeatherDisplay:10.37,2013-08-09 22:20:00,
2013-08-10 00:25:00,63.1,58.9,28.97,SSE,160,2.3,2.8,86,0.00,CLR,FEW,0.00,0.0,WeatherDisplay:10.37,2013-08-09 22:25:00,
2013-08-10 00:30:00,63.1,58.9,28.97,SSE,160,2.3,2.8,86,0.00,CLR,FEW,0.00,0.0,WeatherDisplay:10.37,2013-08-09 22:30:00,
2013-08-10 00:35:00,63.1,58.9,29.00,SSE,160,2.3,2.8,86,0.00,CLR,FEW,0.00,0.0,WeatherDisplay:10.37,2013-08-09 22:35:00,
2013-08-10 00:40:00,63.1,58.9,29.00,SSE,160,2.3,2.8,86,0.00,CLR,FEW,0.00,0.0,WeatherDisplay:10.37,2013-08-09 22:40:00,
2013-08-10 00:45:00,63.1,58.9,29.00,SSE,160,2.3,2.8,86,0.00,CLR,FEW,0.00,0.0,WeatherDisplay:10.37,2013-08-09 22:45:00,
2013-08-10 00:50:00,63.1,58.9,28.97,SSE,160,2.3,2.8,86,0.00,CLR,FEW,0.00,0.0,WeatherDisplay:10.37,2013-08-09 22:50:00,
2013-08-10 00:55:00,63.1,58.9,28.97,SSE,160,2.3,2.8,86,0.00,CLR,FEW,0.00,0.0,WeatherDisplay:10.37,2013-08-09 22:55:00,
2013-08-10 01:00:00,63.1,58.9,28.97,SSE,160,2.3,2.8,86,0.00,CLR,FEW,0.00,0.0,WeatherDisplay:10.37,2013-08-09 23:00:00,
2013-08-10 01:05:00,63.1,58.9,28.97,SSE,160,2.3,2.8,86,0.00,CLR,FEW,0.00,0.0,WeatherDisplay:10.37,2013-08-09 23:05:00,
2013-08-10 01:10:00,63.1,58.9,28.97,SSE,160,2.3,2.8,86,0.00,CLR,FEW,0.00,0.0,WeatherDisplay:10.37,2013-08-09 23:10:00,
2013-08-10 01:15:00,63.1,58.9,28.97,SSE,160,2.3,2.8,86,0.00,CLR,FEW,0.00,0.0,WeatherDisplay:10.37,2013-08-09 23:15:00,
2013-08-10 01:20:00,63.1,58.9,28.97,SSE,160,2.3,2.8,86,0.00,CLR,FEW,0.00,0.0,WeatherDisplay:10.37,2013-08-09 23:20:00,
2013-08-10 01:25:00,63.1,58.9,28.97,SSE,160,2.3,2.8,86,0.00,CLR,FEW,0.00,0.0,WeatherDisplay:10.37,2013-08-09 23:25:00,
2013-08-10 01:30:00,63.1,58.9,28.97,SSE,160,2.3,2.8,86,0.00,CLR,FEW,0.00,0.0,WeatherDisplay:10.37,2013-08-09 23:30:00,
2013-08-10 01:35:00,63.1,58.9,29.00,SSE,160,2.3,2.8,86,0.00,CLR,FEW,0.00,0.0,WeatherDisplay:10.37,2013-08-09 23:35:00,
2013-08-10 01:40:00,63.1,58.9,29.00,SSE,160,2.3,2.8,86,0.00,CLR,FEW,0.00,0.0,WeatherDisplay:10.37,2013-08-09 23:40:00,
2013-08-10 01:45:00,63.1,58.9,29.00,SSE,160,2.3,2.8,86,0.00,CLR,FEW,0.00,0.0,WeatherDisplay:10.37,2013-08-09 23:45:00,
2013-08-10 01:50:00,63.1,58.9,29.00,SSE,160,2.3,2.8,86,0.00,CLR,FEW,0.00,0.0,WeatherDisplay:10.37,2013-08-09 23:50:00,
2013-08-10 01:55:00,63.1,58.9,29.00,SSE,160,2.3,2.8,86,0.00,CLR,FEW,0.00,0.0,WeatherDisplay:10.37,2013-08-09 23:55:00,
2013-08-10 02:00:00,63.1,58.9,29.00,SSE,160,2.3,2.8,86,0.00,CLR,FEW,0.00,0.0,WeatherDisplay:10.37,2013-08-10 00:00:00,
2013-08-10 02:05:00,63.1,58.9,29.00,SSE,160,2.3,2.8,86,0.00,CLR,FEW,0.00,0.0,WeatherDisplay:10.37,2013-08-10 00:05:00,
2013-08-10 02:10:00,63.1,58.9,29.00,SSE,160,2.3,2.8,86,0.00,CLR,FEW,0.00,0.0,WeatherDisplay:10.37,2013-08-10 00:10:00,
2013-08-10 02:15:00,63.1,58.9,29.00,SSE,160,2.3,2.8,86,0.00,CLR,FEW,0.00,0.0,WeatherDisplay:10.37,2013-08-10 00:15:00,
2013-08-10 02:20:00,63.1,58.9,29.00,SSE,160,2.3,2.8,86,0.00,CLR,FEW,0.00,0.0,WeatherDisplay:10.37,2013-08-10 00:20:00,
2013-08-10 02:25:00,63.1,58.9,29.00,SSE,160,2.3,2.8,86,0.00,CLR,FEW,0.00,0.0,WeatherDisplay:10.37,2013-08-10 00:25:00,
2013-08-10 02:30:00,63.1,58.9,29.00,SSE,160,2.3,2.8,86,0.00,CLR,FEW,0.00,0.0,WeatherDisplay:10.37,2013-08-10 00:30:00,
2013-08-10 02:35:00,63.1,58.9,29.00,SSE,160,2.3,2.8,86,0.00,CLR,FEW,0.00,0.0,WeatherDisplay:10.37,2013-08-10 00:35:00,
2013-08-10 02:40:00,63.1,58.9,29.00,SSE,160,2.3,2.8,86,0.00,CLR,FEW,0.00,0.0,WeatherDisplay:10.37,2013-08-10 00:40:00,
2013-08-10 02:45:00,63.1,58.9,29.00,SSE,160,2.3,2.8,86,0.00,CLR,FEW,0.00,0.0,WeatherDisplay:10.37,2013-08-10 00:45:00,
2013-08-10 02:50:00,63.1,58.9,28.97,SSE,160,2.3,2.8,86,0.00,CLR,FEW,0.00,0.0,WeatherDisplay:10.37,2013-08-10 00:50:00,
2013-08-10 02:55:00,63.1,58.9,28.97,SSE,160,2.3,2.8,86,0.00,CLR,FEW,0.00,0.0,WeatherDisplay:10.37,2013-08-10 00:55:00,
2013-08-10 03:00:00,63.1,58.9,28.97,SSE,160,2.3,2.8,86,0.00,CLR,FEW,0.00,0.0,WeatherDisplay:10.37,2013-08-10 01:00:00,
2013-08-10 03:05:00,63.1,58.9,28.97,SSE,160,2.3,2.8,86,0.00,CLR,FEW,0.00,0.0,WeatherDisplay:10.37,2013-08-10 01:05:00,
2013-08-10 03:10:00,63.1,58.9,28.97,SSE,160,2.3,2.8,86,0.00,CLR,FEW,0.00,0.0,WeatherDisplay:10.37,2013-08-10 01:10:00,
2013-08-10 03:15:00,63.1,58.9,28.97,SSE,160,2.3,2.8,86,0.00,CLR,FEW,0.00,0.0,WeatherDisplay:10.37,2013-08-10 01:15:00,
2013-08-10 03:20:00,63.1,58.9,28.97,SSE,160,2.3,2.8,86,0.00,CLR,FEW,0.00,0.0,WeatherDisplay:10.37,2013-08-10 01:20:00,
2013-08-10 03:25:00,63.1,58.9,28.97,SSE,160,2.3,2.8,86,0.00,CLR,FEW,0.00,0.0,WeatherDisplay:10.37,2013-08-10 01:25:00,
2013-08-10 03:30:00,63.1,58.9,28.97,SSE,160,2.3,2.8,86,0.00,CLR,FEW,0.00,0.0,WeatherDisplay:10.37,2013-08-10 01:30:00,
2013-08-10 03:35:00,63.1,58.9,28.97,SSE,160,2.3,2.8,86,0.00,CLR,FEW,0.00,0.0,WeatherDisplay:10.37,2013-08-10 01:35:00,
2013-08-10 03:40:00,54.3,53.2,28.97,WSW,240,0.0,0.0,96,0.00,CLR,FEW,0.00,0.0,WeatherDisplay:10.37,2013-08-10 01:40:00,
2013-08-10 03:45:00,54.0,52.8,28.97,WSW,240,0.0,0.0,96,0.00,CLR,FEW,0.00,0.0,WeatherDisplay:10.37,2013-08-10 01:45:00,
2013-08-10 03:50:00,54.1,53.0,28.97,WSW,240,0.0,0.0,96,0.00,CLR,FEW,0.00,0.0,WeatherDisplay:10.37,2013-08-10 01:50:00,
2013-08-10 03:55:00,54.1,53.0,28.97,WSW,240,0.0,0.0,96,0.00,CLR,FEW,0.00,0.0,WeatherDisplay:10.37,2013-08-10 01:55:00,
2013-08-10 04:00:00,54.3,53.5,28.97,WSW,240,0.0,0.0,97,0.00,CLR,FEW,0.00,0.0,WeatherDisplay:10.37,2013-08-10 02:00:00,
2013-08-10 04:05:00,54.3,53.5,28.97,NNW,345,0.0,0.0,97,0.00,CLR,FEW,0.00,0.0,WeatherDisplay:10.37,2013-08-10 02:05:00,
2013-08-10 04:10:00,54.1,53.3,28.97,NNW,345,0.0,0.0,97,0.00,CLR,FEW,0.00,0.0,WeatherDisplay:10.37,2013-08-10 02:10:00,
2013-08-10 04:15:00,54.0,53.1,28.97,NNW,345,0.0,0.0,97,0.00,CLR,FEW,0.00,0.0,WeatherDisplay:10.37,2013-08-10 02:15:00,
2013-08-10 04:20:00,53.8,52.9,28.97,NNW,345,0.0,0.0,97,0.00,CLR,FEW,0.00,0.0,WeatherDisplay:10.37,2013-08-10 02:20:00,
2013-08-10 04:25:00,53.8,52.9,28.97,NNW,345,0.0,0.0,97,0.00,CLR,FEW,0.00,0.0,WeatherDisplay:10.37,2013-08-10 02:25:00,
2013-08-10 04:30:00,53.6,52.8,28.97,NNW,345,0.0,0.0,97,0.00,CLR,FEW,0.00,0.0,WeatherDisplay:10.37,2013-08-10 02:30:00,
2013-08-10 04:35:00,53.2,52.4,28.97,NNW,345,0.0,0.0,97,0.00,CLR,FEW,0.00,0.0,WeatherDisplay:10.37,2013-08-10 02:35:00,
2013-08-10 04:40:00,53.2,52.4,28.97,NNW,345,0.0,0.0,97,0.00,CLR,FEW,0.00,0.0,WeatherDisplay:10.37,2013-08-10 02:40:00,
2013-08-10 04:45:00,53.1,52.2,28.97,NNW,345,0.0,0.0,97,0.00,CLR,FEW,0.00,0.0,WeatherDisplay:10.37,2013-08-10 02:45:00,
2013-08-10 04:50:00,52.9,52.1,28.97,NNW,340,0.0,0.0,97,0.00,CLR,FEW,0.00,0.0,WeatherDisplay:10.37,2013-08-10 02:50:00,
2013-08-10 04:55:00,52.9,52.1,28.97,NNW,340,0.0,0.0,97,0.00,CLR,FEW,0.00,0.0,WeatherDisplay:10.37,2013-08-10 02:55:00,
2013-08-10 05:00:00,52.9,52.1,28.97,North,355,0.0,0.0,97,0.00,CLR,FEW,0.00,0.0,WeatherDisplay:10.37,2013-08-10 03:00:00,
2013-08-10 05:05:00,52.9,52.1,28.97,North,350,0.0,0.0,97,0.00,CLR,FEW,0.00,0.0,WeatherDisplay:10.37,2013-08-10 03:05:00,
2013-08-10 05:10:00,52.9,52.1,28.97,North,350,0.0,0.0,97,0.00,CLR,FEW,0.00,0.0,WeatherDisplay:10.37,2013-08-10 03:10:00,
2013-08-10 05:15:00,52.7,51.9,28.97,North,350,0.0,0.0,97,0.00,OVC,FEW,0.00,0.0,WeatherDisplay:10.37,2013-08-10 03:15:00,
2013-08-10 05:20:00,52.9,52.1,28.97,North,350,0.0,0.0,97,0.00,OVC,FEW,0.00,0.0,WeatherDisplay:10.37,2013-08-10 03:20:00,
2013-08-10 05:25:00,52.9,52.1,28.97,North,350,0.0,0.0,97,0.00,OVC,FEW,0.00,0.0,WeatherDisplay:10.37,2013-08-10 03:25:00,
2013-08-10 05:30:00,53.2,52.4,28.97,North,350,0.0,0.0,97,0.00,OVC,FEW,0.00,0.0,WeatherDisplay:10.37,2013-08-10 03:30:00,
2013-08-10 05:35:00,53.2,52.4,28.97,North,350,0.0,0.0,97,0.00,OVC,FEW,0.00,0.0,WeatherDisplay:10.37,2013-08-10 03:35:00,
2013-08-10 05:40:00,53.1,52.2,28.97,North,350,0.0,0.0,97,0.00,OVC,FEW,0.00,0.0,WeatherDisplay:10.37,2013-08-10 03:40:00,
2013-08-10 05:45:00,53.2,52.4,28.97,North,350,0.0,0.0,97,0.00,OVC,FEW,0.00,0.0,WeatherDisplay:10.37,2013-08-10 03:45:00,
2013-08-10 05:50:00,53.2,52.4,28.97,North,350,0.0,0.0,97,0.00,OVC,FEW,0.00,0.0,WeatherDisplay:10.37,2013-08-10 03:50:00,
2013-08-10 05:55:00,53.2,52.4,28.97,North,350,0.0,0.0,97,0.00,OVC,FEW,0.00,0.0,WeatherDisplay:10.37,2013-08-10 03:55:00,
2013-08-10 06:00:00,53.4,52.6,28.97,NNW,345,0.0,0.0,97,0.00,OVC,FEW,0.00,0.0,WeatherDisplay:10.37,2013-08-10 04:00:00,
2013-08-10 06:01:00,53.4,52.6,28.97,NNW,345,0.0,0.0,97,0.00,OVC,FEW,0.00,0.0,WeatherDisplay:10.37,2013-08-10 04:01:00,
2013-08-10 06:02:00,53.4,52.6,28.97,NNW,345,0.0,0.0,97,0.00,OVC,FEW,0.00,0.0,WeatherDisplay:10.37,2013-08-10 04:02:00,
2013-08-10 06:07:00,53.4,52.6,28.97,NNW,345,0.0,0.0,97,0.00,OVC,FEW,0.00,0.0,WeatherDisplay:10.37,2013-08-10 04:07:00,
2013-08-10 06:12:00,53.4,52.6,28.97,NNW,345,0.0,0.0,97,0.00,OVC,FEW,0.00,0.0,WeatherDisplay:10.37,2013-08-10 04:12:00,
2013-08-10 06:17:00,53.4,52.6,28.97,NNW,345,0.0,0.0,97,0.00,OVC,FEW,0.00,0.0,WeatherDisplay:10.37,2013-08-10 04:17:00,
2013-08-10 06:22:00,53.4,52.6,28.97,NNW,345,0.0,0.0,97,0.00,OVC,FEW,0.00,0.0,WeatherDisplay:10.37,2013-08-10 04:22:00,
2013-08-10 06:27:00,53.4,52.6,28.97,NNW,345,0.0,0.0,97,0.00,OVC,FEW,0.00,0.0,WeatherDisplay:10.37,2013-08-10 04:27:00,
2013-08-10 06:32:00,53.4,52.6,28.97,NNW,345,0.0,0.0,97,0.00,OVC,FEW,0.00,0.0,WeatherDisplay:10.37,2013-08-10 04:32:00,
2013-08-10 06:37:00,53.4,52.6,28.97,NNW,345,0.0,0.0,97,0.00,OVC,FEW,0.00,0.0,WeatherDisplay:10.37,2013-08-10 04:37:00,
2013-08-10 06:42:00,53.4,52.6,28.97,NNW,345,0.0,0.0,97,0.00,OVC,FEW,0.00,0.0,WeatherDisplay:10.37,2013-08-10 04:42:00,
2013-08-10 06:47:00,53.4,52.6,28.97,NNW,345,0.0,0.0,97,0.00,OVC,FEW,0.00,0.0,WeatherDisplay:10.37,2013-08-10 04:47:00,
2013-08-10 06:52:00,53.4,52.6,28.97,NNW,345,0.0,0.0,97,0.00,OVC,FEW,0.00,0.0,WeatherDisplay:10.37,2013-08-10 04:52:00,
2013-08-10 06:57:00,53.4,52.6,28.97,NNW,345,0.0,0.0,97,0.00,OVC,FEW,0.00,0.0,WeatherDisplay:10.37,2013-08-10 04:57:00,
2013-08-10 07:02:00,53.4,52.6,28.97,NNW,345,0.0,0.0,97,0.00,OVC,FEW,0.00,0.0,WeatherDisplay:10.37,2013-08-10 05:02:00,
2013-08-10 07:07:00,53.4,52.6,28.97,NNW,345,0.0,0.0,97,0.00,OVC,FEW,0.00,0.0,WeatherDisplay:10.37,2013-08-10 05:07:00,
2013-08-10 07:12:00,53.4,52.6,28.97,NNW,345,0.0,0.0,97,0.00,OVC,FEW,0.00,0.0,WeatherDisplay:10.37,2013-08-10 05:12:00,
2013-08-10 07:17:00,53.4,52.6,28.97,NNW,345,0.0,0.0,97,0.00,OVC,FEW,0.00,0.0,WeatherDisplay:10.37,2013-08-10 05:17:00,
2013-08-10 07:22:00,53.4,52.6,28.97,NNW,345,0.0,0.0,97,0.00,OVC,FEW,0.00,0.0,WeatherDisplay:10.37,2013-08-10 05:22:00,
2013-08-10 07:27:00,53.4,52.6,28.97,NNW,345,0.0,0.0,97,0.00,OVC,FEW,0.00,0.0,WeatherDisplay:10.37,2013-08-10 05:27:00,
2013-08-10 07:32:00,53.4,52.6,28.97,NNW,345,0.0,0.0,97,0.00,OVC,FEW,0.00,0.0,WeatherDisplay:10.37,2013-08-10 05:32:00,
2013-08-10 07:37:00,53.4,52.6,28.97,NNW,345,0.0,0.0,97,0.00,OVC,FEW,0.00,0.0,WeatherDisplay:10.37,2013-08-10 05:37:00,
2013-08-10 07:42:00,53.4,52.6,28.97,NNW,345,0.0,0.0,97,0.00,OVC,FEW,0.00,0.0,WeatherDisplay:10.37,2013-08-10 05:42:00,
2013-08-10 07:47:00,53.4,52.6,28.97,NNW,345,0.0,0.0,97,0.00,OVC,FEW,0.00,0.0,WeatherDisplay:10.37,2013-08-10 05:47:00,
2013-08-10 07:52:00,53.4,52.6,28.97,NNW,345,0.0,0.0,97,0.00,OVC,FEW,0.00,0.0,WeatherDisplay:10.37,2013-08-10 05:52:00,
2013-08-10 07:57:00,53.4,52.6,28.97,NNW,345,0.0,0.0,97,0.00,OVC,FEW,0.00,0.0,WeatherDisplay:10.37,2013-08-10 05:57:00,
2013-08-10 08:02:00,53.4,52.6,28.97,NNW,345,0.0,0.0,97,0.00,OVC,FEW,0.00,0.0,WeatherDisplay:10.37,2013-08-10 06:02:00,
2013-08-10 08:07:00,53.4,52.6,28.97,NNW,345,0.0,0.0,97,0.00,OVC,FEW,0.00,0.0,WeatherDisplay:10.37,2013-08-10 06:07:00,
2013-08-10 08:12:00,53.4,52.6,28.97,NNW,345,0.0,0.0,97,0.00,OVC,FEW,0.00,0.0,WeatherDisplay:10.37,2013-08-10 06:12:00,
2013-08-10 08:17:00,53.4,52.6,28.97,NNW,345,0.0,0.0,97,0.00,OVC,FEW,0.00,0.0,WeatherDisplay:10.37,2013-08-10 06:17:00,
2013-08-10 08:22:00,53.4,52.6,28.97,NNW,345,0.0,0.0,97,0.00,OVC,FEW,0.00,0.0,WeatherDisplay:10.37,2013-08-10 06:22:00,
2013-08-10 08:27:00,53.4,52.6,28.97,NNW,345,0.0,0.0,97,0.00,OVC,FEW,0.00,0.0,WeatherDisplay:10.37,2013-08-10 06:27:00,
2013-08-10 08:32:00,53.4,52.6,28.97,NNW,345,0.0,0.0,97,0.00,OVC,FEW,0.00,0.0,WeatherDisplay:10.37,2013-08-10 06:32:00,
2013-08-10 08:37:00,53.4,52.6,28.97,NNW,345,0.0,0.0,97,0.00,OVC,FEW,0.00,0.0,WeatherDisplay:10.37,2013-08-10 06:37:00,
2013-08-10 08:42:00,53.4,52.6,28.97,NNW,345,0.0,0.0,97,0.00,OVC,FEW,0.00,0.0,WeatherDisplay:10.37,2013-08-10 06:42:00,
2013-08-10 08:47:00,53.4,52.6,28.97,NNW,345,0.0,0.0,97,0.00,OVC,FEW,0.00,0.0,WeatherDisplay:10.37,2013-08-10 06:47:00,
2013-08-10 08:52:00,53.4,52.6,28.97,NNW,345,0.0,0.0,97,0.00,OVC,FEW,0.00,0.0,WeatherDisplay:10.37,2013-08-10 06:52:00,
2013-08-10 08:57:00,53.4,52.6,28.97,NNW,345,0.0,0.0,97,0.00,OVC,FEW,0.00,0.0,WeatherDisplay:10.37,2013-08-10 06:57:00,
2013-08-10 09:02:00,53.4,52.6,28.97,NNW,345,0.0,0.0,97,0.00,OVC,FEW,0.00,0.0,WeatherDisplay:10.37,2013-08-10 07:02:00,
2013-08-10 09:07:00,53.4,52.6,28.97,NNW,345,0.0,0.0,97,0.00,OVC,FEW,0.00,0.0,WeatherDisplay:10.37,2013-08-10 07:07:00,
2013-08-10 09:12:00,53.4,52.6,28.97,NNW,345,0.0,0.0,97,0.00,OVC,FEW,0.00,0.0,WeatherDisplay:10.37,2013-08-10 07:12:00,
2013-08-10 09:17:00,53.4,52.6,28.97,NNW,345,0.0,0.0,97,0.00,OVC,FEW,0.00,0.0,WeatherDisplay:10.37,2013-08-10 07:17:00,
2013-08-10 09:22:00,53.4,52.6,28.97,NNW,345,0.0,0.0,97,0.00,OVC,FEW,0.00,0.0,WeatherDisplay:10.37,2013-08-10 07:22:00,
2013-08-10 09:27:00,53.4,52.6,28.97,NNW,345,0.0,0.0,97,0.00,OVC,FEW,0.00,0.0,WeatherDisplay:10.37,2013-08-10 07:27:00,
2013-08-10 09:32:00,53.4,52.6,28.97,NNW,345,0.0,0.0,97,0.00,OVC,FEW,0.00,0.0,WeatherDisplay:10.37,2013-08-10 07:32:00,
2013-08-10 09:37:00,53.4,52.6,28.97,NNW,345,0.0,0.0,97,0.00,OVC,FEW,0.00,0.0,WeatherDisplay:10.37,2013-08-10 07:37:00,
2013-08-10 09:42:00,53.4,52.6,28.97,NNW,345,0.0,0.0,97,0.00,OVC,FEW,0.00,0.0,WeatherDisplay:10.37,2013-08-10 07:42:00,
2013-08-10 09:47:00,53.4,52.6,28.97,NNW,345,0.0,0.0,97,0.00,OVC,FEW,0.00,0.0,WeatherDisplay:10.37,2013-08-10 07:47:00,
2013-08-10 09:52:00,63.9,59.9,28.97,NNE,20,5.8,5.8,87,0.00,OVC,FEW,0.00,0.0,WeatherDisplay:10.37,2013-08-10 07:52:00,
2013-08-10 09:57:00,64.0,59.4,28.97,NE,35,4.6,4.9,85,0.00,OVC,FEW,0.00,0.0,WeatherDisplay:10.37,2013-08-10 07:57:00,
2013-08-10 10:02:00,64.0,59.4,28.97,NE,35,4.6,4.9,85,0.00,OVC,FEW,0.00,0.0,WeatherDisplay:10.37,2013-08-10 08:02:00,
2013-08-10 10:07:00,64.0,59.4,28.97,NE,35,4.6,4.9,85,0.00,OVC,FEW,0.00,0.0,WeatherDisplay:10.37,2013-08-10 08:07:00,
2013-08-10 10:12:00,64.0,59.4,28.97,NE,35,4.6,4.9,85,0.00,OVC,FEW,0.00,0.0,WeatherDisplay:10.37,2013-08-10 08:12:00,
2013-08-10 10:17:00,64.0,59.4,28.97,NE,35,4.6,4.9,85,0.00,OVC,FEW,0.00,0.0,WeatherDisplay:10.37,2013-08-10 08:17:00,
2013-08-10 10:22:00,66.0,60.4,28.97,North,350,5.8,5.8,82,0.00,OVC,FEW,0.00,0.0,WeatherDisplay:10.37,2013-08-10 08:22:00,
2013-08-10 10:27:00,66.2,60.5,28.97,NW,325,4.6,5.1,82,0.00,OVC,FEW,0.00,0.0,WeatherDisplay:10.37,2013-08-10 08:27:00,
2013-08-10 10:32:00,66.4,60.7,28.97,NW,325,4.6,4.7,82,0.00,OVC,FEW,0.00,0.0,WeatherDisplay:10.37,2013-08-10 08:32:00,
2013-08-10 10:37:00,66.4,60.7,28.97,NW,325,4.6,4.7,82,0.00,OVC,FEW,0.00,0.0,WeatherDisplay:10.37,2013-08-10 08:37:00,
2013-08-10 10:42:00,67.6,61.6,28.97,NW,325,2.3,2.6,81,0.00,OVC,FEW,0.00,0.0,WeatherDisplay:10.37,2013-08-10 08:42:00,
2013-08-10 10:47:00,67.1,60.4,28.97,NNE,20,6.9,7.3,79,0.00,OVC,FEW,0.00,0.0,WeatherDisplay:10.37,2013-08-10 08:47:00,
2013-08-10 10:52:00,67.1,60.4,28.97,NNE,20,6.9,7.3,79,0.00,OVC,FEW,0.00,0.0,WeatherDisplay:10.37,2013-08-10 08:52:00,
2013-08-10 10:57:00,67.1,60.4,28.97,NNE,20,6.9,7.3,79,0.00,OVC,FEW,0.00,0.0,WeatherDisplay:10.37,2013-08-10 08:57:00,
2013-08-10 11:02:00,67.1,60.4,28.97,NNE,20,6.9,7.3,79,0.00,OVC,FEW,0.00,0.0,WeatherDisplay:10.37,2013-08-10 09:02:00,
2013-08-10 11:07:00,67.1,60.4,28.97,NNE,20,6.9,7.3,79,0.00,OVC,FEW,0.00,0.0,WeatherDisplay:10.37,2013-08-10 09:07:00,
2013-08-10 11:12:00,67.1,60.4,28.97,NNE,20,6.9,7.3,79,0.00,OVC,FEW,0.00,0.0,WeatherDisplay:10.37,2013-08-10 09:12:00,
2013-08-10 11:17:00,67.1,60.4,28.97,NNE,20,6.9,7.3,79,0.00,OVC,FEW,0.00,0.0,WeatherDisplay:10.37,2013-08-10 09:17:00,
2013-08-10 11:22:00,67.1,60.4,28.97,NNE,20,6.9,7.3,79,0.00,OVC,FEW,0.00,0.0,WeatherDisplay:10.37,2013-08-10 09:22:00,
2013-08-10 11:27:00,67.1,60.4,28.97,NNE,20,6.9,7.3,79,0.00,OVC,FEW,0.00,0.0,WeatherDisplay:10.37,2013-08-10 09:27:00,
2013-08-10 11:32:00,67.1,60.4,28.97,NNE,20,6.9,7.3,79,0.00,OVC,FEW,0.00,0.0,WeatherDisplay:10.37,2013-08-10 09:32:00,
2013-08-10 11:37:00,67.1,60.4,28.97,NNE,20,6.9,7.3,79,0.00,OVC,FEW,0.00,0.0,WeatherDisplay:10.37,2013-08-10 09:37:00,
2013-08-10 11:42:00,67.1,60.4,28.97,NNE,20,6.9,7.3,79,0.00,OVC,FEW,0.00,0.0,WeatherDisplay:10.37,2013-08-10 09:42:00,
2013-08-10 11:47:00,70.5,61.1,28.97,North,350,4.6,4.6,72,0.00,OVC,FEW,0.00,0.0,WeatherDisplay:10.37,2013-08-10 09:47:00,
2013-08-10 11:52:00,70.5,61.1,28.97,North,350,4.6,4.6,72,0.00,OVC,FEW,0.00,0.0,WeatherDisplay:10.37,2013-08-10 09:52:00,
2013-08-10 11:57:00,70.5,61.1,28.97,North,350,4.6,4.6,72,0.00,OVC,FEW,0.00,0.0,WeatherDisplay:10.37,2013-08-10 09:57:00,
2013-08-10 12:02:00,70.5,61.1,28.97,North,350,4.6,4.6,72,0.00,OVC,FEW,0.00,0.0,WeatherDisplay:10.37,2013-08-10 10:02:00,
2013-08-10 12:07:00,70.5,61.1,28.97,North,350,4.6,4.6,72,0.00,OVC,FEW,0.00,0.0,WeatherDisplay:10.37,2013-08-10 10:07:00,
2013-08-10 12:12:00,70.5,61.1,28.97,North,350,4.6,4.6,72,0.00,OVC,FEW,0.00,0.0,WeatherDisplay:10.37,2013-08-10 10:12:00,
2013-08-10 12:17:00,68.9,58.7,28.97,NE,35,4.6,4.6,70,0.00,OVC,FEW,0.00,0.0,WeatherDisplay:10.37,2013-08-10 10:17:00,
2013-08-10 12:22:00,69.8,58.8,28.94,NNE,30,6.9,6.9,68,0.00,OVC,FEW,0.00,0.0,WeatherDisplay:10.37,2013-08-10 10:22:00,
2013-08-10 12:27:00,70.5,59.0,28.94,NNE,30,6.9,6.9,67,0.00,OVC,FEW,0.00,0.0,WeatherDisplay:10.37,2013-08-10 10:27:00,
2013-08-10 12:32:00,70.5,59.0,28.94,NNE,30,6.9,6.9,67,0.00,OVC,FEW,0.00,0.0,WeatherDisplay:10.37,2013-08-10 10:32:00,
2013-08-10 12:37:00,70.5,59.0,28.94,NNE,30,6.9,6.9,67,0.00,OVC,FEW,0.00,0.0,WeatherDisplay:10.37,2013-08-10 10:37:00,
2013-08-10 12:42:00,70.5,59.0,28.94,NNE,30,6.9,6.9,67,0.00,OVC,FEW,0.00,0.0,WeatherDisplay:10.37,2013-08-10 10:42:00,
2013-08-10 12:47:00,70.5,59.0,28.94,NNE,30,6.9,6.9,67,0.00,OVC,FEW,0.00,0.0,WeatherDisplay:10.37,2013-08-10 10:47:00,
2013-08-10 12:52:00,71.1,56.9,28.97,North,355,6.9,6.9,61,0.00,OVC,FEW,0.00,0.0,WeatherDisplay:10.37,2013-08-10 10:52:00,
2013-08-10 12:57:00,70.5,57.8,28.97,NE,35,5.8,5.8,64,0.00,OVC,FEW,0.00,0.0,WeatherDisplay:10.37,2013-08-10 10:57:00,
2013-08-10 13:02:00,71.4,57.7,28.97,NE,45,4.6,4.7,62,0.00,OVC,FEW,0.00,0.0,WeatherDisplay:10.37,2013-08-10 11:02:00,
2013-08-10 13:08:00,71.6,57.9,28.94,NNW,340,3.5,3.8,62,0.00,OVC,FEW,0.00,0.0,WeatherDisplay:10.37,2013-08-10 11:08:00,
2013-08-10 13:13:00,71.6,57.9,28.94,NNW,340,3.5,3.8,62,0.00,OVC,FEW,0.00,0.0,WeatherDisplay:10.37,2013-08-10 11:13:00,
2013-08-10 13:18:00,72.0,58.7,28.94,NNE,15,2.3,2.6,63,0.00,OVC,FEW,0.00,0.0,WeatherDisplay:10.37,2013-08-10 11:18:00,
2013-08-10 13:23:00,72.0,58.7,28.94,NNE,15,2.3,2.6,63,0.00,OVC,FEW,0.00,0.0,WeatherDisplay:10.37,2013-08-10 11:23:00,
2013-08-10 13:28:00,72.0,58.7,28.94,NNE,15,2.3,2.6,63,0.00,OVC,FEW,0.00,0.0,WeatherDisplay:10.37,2013-08-10 11:28:00,
2013-08-10 13:33:00,72.0,58.7,28.94,NNE,15,2.3,2.6,63,0.00,OVC,FEW,0.00,0.0,WeatherDisplay:10.37,2013-08-10 11:33:00,
2013-08-10 13:38:00,72.0,58.7,28.94,NNE,15,2.3,2.6,63,0.00,OVC,FEW,0.00,0.0,WeatherDisplay:10.37,2013-08-10 11:38:00,
2013-08-10 13:43:00,74.5,60.6,28.94,NE,35,5.8,5.8,62,0.00,OVC,FEW,0.00,0.0,WeatherDisplay:10.37,2013-08-10 11:43:00,
2013-08-10 13:48:00,71.4,58.6,28.94,WNW,290,3.5,3.5,64,0.00,OVC,FEW,0.00,0.0,WeatherDisplay:10.37,2013-08-10 11:48:00,
2013-08-10 13:53:00,70.5,58.6,28.94,North,355,4.6,4.6,66,0.00,OVC,FEW,0.00,0.0,WeatherDisplay:10.37,2013-08-10 11:53:00,
2013-08-10 13:58:00,70.5,58.6,28.94,North,355,4.6,4.6,66,0.00,OVC,FEW,0.00,0.0,WeatherDisplay:10.37,2013-08-10 11:58:00,
2013-08-10 14:03:00,70.5,58.6,28.94,North,355,4.6,4.6,66,0.00,OVC,FEW,0.00,0.0,WeatherDisplay:10.37,2013-08-10 12:03:00,
2013-08-10 14:08:00,70.5,58.6,28.97,North,355,4.6,4.6,66,0.00,OVC,FEW,0.00,0.0,WeatherDisplay:10.37,2013-08-10 12:08:00,
2013-08-10 14:13:00,70.5,58.6,28.97,North,355,4.6,4.6,66,0.00,OVC,FEW,0.00,0.0,WeatherDisplay:10.37,2013-08-10 12:13:00,
2013-08-10 14:18:00,70.5,58.6,28.97,North,355,4.6,4.6,66,0.00,OVC,FEW,0.00,0.0,WeatherDisplay:10.37,2013-08-10 12:18:00,
2013-08-10 14:23:00,70.5,58.6,28.94,North,355,4.6,4.6,66,0.00,OVC,FEW,0.00,0.0,WeatherDisplay:10.37,2013-08-10 12:23:00,
2013-08-10 14:28:00,70.5,58.6,28.94,North,355,4.6,4.6,66,0.00,OVC,FEW,0.00,0.0,WeatherDisplay:10.37,2013-08-10 12:28:00,
2013-08-10 14:33:00,70.5,58.6,28.94,North,355,4.6,4.6,66,0.00,OVC,FEW,0.00,0.0,WeatherDisplay:10.37,2013-08-10 12:33:00,
2013-08-10 14:38:00,70.5,58.6,28.94,North,355,4.6,4.6,66,0.00,OVC,FEW,0.00,0.0,WeatherDisplay:10.37,2013-08-10 12:38:00,
2013-08-10 14:43:00,70.5,58.6,28.94,North,355,4.6,4.6,66,0.00,OVC,FEW,0.00,0.0,WeatherDisplay:10.37,2013-08-10 12:43:00,
2013-08-10 14:48:00,70.5,58.6,28.94,North,355,4.6,4.6,66,0.00,OVC,FEW,0.00,0.0,WeatherDisplay:10.37,2013-08-10 12:48:00,
2013-08-10 14:53:00,70.5,58.6,28.94,North,355,4.6,4.6,66,0.00,OVC,FEW,0.00,0.0,WeatherDisplay:10.37,2013-08-10 12:53:00,
2013-08-10 14:58:00,70.5,58.6,28.94,North,355,4.6,4.6,66,0.00,OVC,FEW,0.00,0.0,WeatherDisplay:10.37,2013-08-10 12:58:00,
2013-08-10 15:03:00,70.5,58.6,28.94,North,355,4.6,4.6,66,0.00,OVC,FEW,0.00,0.0,WeatherDisplay:10.37,2013-08-10 13:03:00,
2013-08-10 15:08:00,70.5,58.6,28.94,North,355,4.6,4.6,66,0.00,OVC,FEW,0.00,0.0,WeatherDisplay:10.37,2013-08-10 13:08:00,
2013-08-10 15:13:00,70.5,58.6,28.94,North,355,4.6,4.6,66,0.00,OVC,FEW,0.00,0.0,WeatherDisplay:10.37,2013-08-10 13:13:00,
2013-08-10 15:18:00,70.5,58.6,28.94,North,355,4.6,4.6,66,0.00,OVC,FEW,0.00,0.0,WeatherDisplay:10.37,2013-08-10 13:18:00,
2013-08-10 15:23:00,70.5,58.6,28.94,North,355,4.6,4.6,66,0.00,OVC,FEW,0.00,0.0,WeatherDisplay:10.37,2013-08-10 13:23:00,
2013-08-10 15:28:00,70.5,58.6,28.94,North,355,4.6,4.6,66,0.00,OVC,FEW,0.00,0.0,WeatherDisplay:10.37,2013-08-10 13:28:00,
2013-08-10 15:33:00,70.5,58.6,28.91,North,355,4.6,4.6,66,0.00,OVC,FEW,0.00,0.0,WeatherDisplay:10.37,2013-08-10 13:33:00,
2013-08-10 15:38:00,70.5,58.6,28.91,North,355,4.6,4.6,66,0.00,OVC,FEW,0.00,0.0,WeatherDisplay:10.37,2013-08-10 13:38:00,
2013-08-10 15:43:00,70.5,58.6,28.91,North,355,4.6,4.6,66,0.00,OVC,FEW,0.00,0.0,WeatherDisplay:10.37,2013-08-10 13:43:00,
2013-08-10 15:48:00,70.5,58.6,28.91,North,355,4.6,4.6,66,0.00,OVC,FEW,0.00,0.0,WeatherDisplay:10.37,2013-08-10 13:48:00,
2013-08-10 15:53:00,70.5,58.6,28.94,North,355,4.6,4.6,66,0.00,OVC,FEW,0.00,0.0,WeatherDisplay:10.37,2013-08-10 13:53:00,
2013-08-10 15:58:00,70.5,58.6,28.94,North,355,4.6,4.6,66,0.00,OVC,FEW,0.00,0.0,WeatherDisplay:10.37,2013-08-10 13:58:00,
2013-08-10 16:03:00,70.5,58.6,28.94,North,355,4.6,4.6,66,0.00,OVC,FEW,0.00,0.0,WeatherDisplay:10.37,2013-08-10 14:03:00,
2013-08-10 16:08:00,70.5,58.6,28.94,North,355,4.6,4.6,66,0.00,OVC,FEW,0.00,0.0,WeatherDisplay:10.37,2013-08-10 14:08:00,
2013-08-10 16:13:00,70.5,58.6,28.94,North,355,4.6,4.6,66,0.00,OVC,FEW,0.00,0.0,WeatherDisplay:10.37,2013-08-10 14:13:00,
2013-08-10 16:18:00,70.5,58.6,28.94,North,355,4.6,4.6,66,0.00,OVC,FEW,0.00,0.0,WeatherDisplay:10.37,2013-08-10 14:18:00,
2013-08-10 16:23:00,70.5,58.6,28.91,North,355,4.6,4.6,66,0.00,OVC,FEW,0.00,0.0,WeatherDisplay:10.37,2013-08-10 14:23:00,
2013-08-10 16:28:00,70.5,58.6,28.91,North,355,4.6,4.6,66,0.00,OVC,FEW,0.00,0.0,WeatherDisplay:10.37,2013-08-10 14:28:00,
2013-08-10 16:33:00,70.5,58.6,28.91,North,355,4.6,4.6,66,0.00,OVC,FEW,0.00,0.0,WeatherDisplay:10.37,2013-08-10 14:33:00,
2013-08-10 16:38:00,70.5,58.6,28.91,North,355,4.6,4.6,66,0.00,OVC,FEW,0.00,0.0,WeatherDisplay:10.37,2013-08-10 14:38:00,
2013-08-10 16:43:00,70.5,58.6,28.91,North,355,4.6,4.6,66,0.00,OVC,FEW,0.00,0.0,WeatherDisplay:10.37,2013-08-10 14:43:00,
2013-08-10 16:48:00,70.5,58.6,28.91,North,355,4.6,4.6,66,0.00,OVC,FEW,0.00,0.0,WeatherDisplay:10.37,2013-08-10 14:48:00,
2013-08-10 16:53:00,70.5,58.6,28.91,North,355,4.6,4.6,66,0.00,OVC,FEW,0.00,0.0,WeatherDisplay:10.37,2013-08-10 14:53:00,
2013-08-10 16:58:00,70.5,58.6,28.91,North,355,4.6,4.6,66,0.00,OVC,FEW,0.00,0.0,WeatherDisplay:10.37,2013-08-10 14:58:00,
2013-08-10 17:03:00,70.5,58.6,28.91,North,355,4.6,4.6,66,0.00,OVC,FEW,0.00,0.0,WeatherDisplay:10.37,2013-08-10 15:03:00,
2013-08-10 17:08:00,70.5,58.6,28.91,North,355,4.6,4.6,66,0.00,OVC,FEW,0.00,0.0,WeatherDisplay:10.37,2013-08-10 15:08:00,
2013-08-10 17:13:00,70.5,58.6,28.91,North,355,4.6,4.6,66,0.00,OVC,FEW,0.00,0.0,WeatherDisplay:10.37,2013-08-10 15:13:00,
2013-08-10 17:18:00,70.5,58.6,28.91,North,355,4.6,4.6,66,0.00,OVC,FEW,0.00,0.0,WeatherDisplay:10.37,2013-08-10 15:18:00,
2013-08-10 17:23:00,70.5,58.6,28.91,North,355,4.6,4.6,66,0.00,OVC,FEW,0.00,0.0,WeatherDisplay:10.37,2013-08-10 15:23:00,
2013-08-10 17:28:00,70.5,58.6,28.91,North,355,4.6,4.6,66,0.00,OVC,FEW,0.00,0.0,WeatherDisplay:10.37,2013-08-10 15:28:00,
2013-08-10 17:33:00,70.5,58.6,28.91,North,355,4.6,4.6,66,0.00,OVC,FEW,0.00,0.0,WeatherDisplay:10.37,2013-08-10 15:33:00,
2013-08-10 17:38:00,70.5,58.6,28.91,North,355,4.6,4.6,66,0.00,OVC,FEW,0.00,0.0,WeatherDisplay:10.37,2013-08-10 15:38:00,
2013-08-10 17:43:00,70.5,58.6,28.91,North,355,4.6,4.6,66,0.00,OVC,FEW,0.00,0.0,WeatherDisplay:10.37,2013-08-10 15:43:00,
2013-08-10 17:48:00,70.5,58.6,28.91,North,355,4.6,4.6,66,0.00,OVC,FEW,0.00,0.0,WeatherDisplay:10.37,2013-08-10 15:48:00,
2013-08-10 17:53:00,70.5,58.6,28.88,North,355,4.6,4.6,66,0.00,OVC,FEW,0.00,0.0,WeatherDisplay:10.37,2013-08-10 15:53:00,
2013-08-10 17:58:00,70.5,58.6,28.88,North,355,4.6,4.6,66,0.00,OVC,FEW,0.00,0.0,WeatherDisplay:10.37,2013-08-10 15:58:00,
2013-08-10 18:03:00,70.5,58.6,28.88,North,355,4.6,4.6,66,0.00,OVC,FEW,0.00,0.0,WeatherDisplay:10.37,2013-08-10 16:03:00,
2013-08-10 18:08:00,70.5,58.6,28.88,North,355,4.6,4.6,66,0.00,OVC,FEW,0.00,0.0,WeatherDisplay:10.37,2013-08-10 16:08:00,
2013-08-10 18:13:00,70.5,58.6,28.88,North,355,4.6,4.6,66,0.00,OVC,FEW,0.00,0.0,WeatherDisplay:10.37,2013-08-10 16:13:00,
2013-08-10 18:18:00,70.5,58.6,28.88,North,355,4.6,4.6,66,0.00,OVC,FEW,0.00,0.0,WeatherDisplay:10.37,2013-08-10 16:18:00,
2013-08-10 18:23:00,70.5,58.6,28.91,North,355,4.6,4.6,66,0.00,OVC,FEW,0.00,0.0,WeatherDisplay:10.37,2013-08-10 16:23:00,
2013-08-10 18:28:00,70.5,58.6,28.91,North,355,4.6,4.6,66,0.00,OVC,FEW,0.00,0.0,WeatherDisplay:10.37,2013-08-10 16:28:00,
2013-08-10 18:33:00,70.5,58.6,28.88,North,355,4.6,4.6,66,0.00,OVC,FEW,0.00,0.0,WeatherDisplay:10.37,2013-08-10 16:33:00,
2013-08-10 18:38:00,70.5,58.6,28.88,North,355,4.6,4.6,66,0.00,OVC,FEW,0.00,0.0,WeatherDisplay:10.37,2013-08-10 16:38:00,
2013-08-10 18:43:00,70.5,58.6,28.88,North,355,4.6,4.6,66,0.00,OVC,FEW,0.00,0.0,WeatherDisplay:10.37,2013-08-10 16:43:00,
2013-08-10 18:48:00,70.5,58.6,28.88,North,355,4.6,4.6,66,0.00,OVC,FEW,0.00,0.0,WeatherDisplay:10.37,2013-08-10 16:48:00,
2013-08-10 18:53:00,70.5,58.6,28.88,North,355,4.6,4.6,66,0.00,OVC,FEW,0.00,0.0,WeatherDisplay:10.37,2013-08-10 16:53:00,
2013-08-10 18:58:00,70.5,58.6,28.88,North,355,4.6,4.6,66,0.00,OVC,FEW,0.00,0.0,WeatherDisplay:10.37,2013-08-10 16:58:00,
2013-08-10 19:03:00,70.5,58.6,28.88,North,355,4.6,4.6,66,0.00,OVC,FEW,0.00,0.0,WeatherDisplay:10.37,2013-08-10 17:03:00,
2013-08-10 19:08:00,70.5,58.6,28.88,North,355,4.6,4.6,66,0.00,OVC,FEW,0.00,0.0,WeatherDisplay:10.37,2013-08-10 17:08:00,
2013-08-10 19:13:00,70.5,58.6,28.88,North,355,4.6,4.6,66,0.00,OVC,FEW,0.00,0.0,WeatherDisplay:10.37,2013-08-10 17:13:00,
2013-08-10 19:18:00,70.5,58.6,28.88,North,355,4.6,4.6,66,0.00,OVC,FEW,0.00,0.0,WeatherDisplay:10.37,2013-08-10 17:18:00,
2013-08-10 19:23:00,70.5,58.6,28.91,North,355,4.6,4.6,66,0.00,OVC,FEW,0.00,0.0,WeatherDisplay:10.37,2013-08-10 17:23:00,
2013-08-10 19:28:00,70.5,58.6,28.91,North,355,4.6,4.6,66,0.00,OVC,FEW,0.00,0.0,WeatherDisplay:10.37,2013-08-10 17:28:00,
2013-08-10 19:33:00,70.5,58.6,28.88,North,355,4.6,4.6,66,0.00,OVC,FEW,0.00,0.0,WeatherDisplay:10.37,2013-08-10 17:33:00,
2013-08-10 19:38:00,71.2,61.4,28.88,North,0,0.0,0.0,71,0.09,RA,FEW,0.09,0.0,WeatherDisplay:10.37,2013-08-10 17:38:00,
2013-08-10 19:43:00,71.2,61.4,28.88,North,0,0.0,0.0,71,0.09,RA,FEW,0.09,0.0,WeatherDisplay:10.37,2013-08-10 17:43:00,
2013-08-10 19:48:00,69.8,60.8,28.88,North,0,0.0,0.0,73,0.09,OVC,FEW,0.09,0.0,WeatherDisplay:10.37,2013-08-10 17:48:00,
2013-08-10 19:53:00,68.7,61.6,28.91,North,10,0.0,0.0,78,0.09,OVC,FEW,0.09,0.0,WeatherDisplay:10.37,2013-08-10 17:53:00,
2013-08-10 19:58:00,67.3,60.9,28.91,North,5,0.0,0.0,80,0.09,OVC,FEW,0.09,0.0,WeatherDisplay:10.37,2013-08-10 17:58:00,
2013-08-10 20:03:00,66.2,60.2,28.91,North,0,0.0,0.0,81,0.09,OVC,FEW,0.09,0.0,WeatherDisplay:10.37,2013-08-10 18:03:00,
2013-08-10 20:08:00,65.7,60.0,28.91,North,0,0.0,0.0,82,0.09,OVC,FEW,0.09,0.0,WeatherDisplay:10.37,2013-08-10 18:08:00,
2013-08-10 20:13:00,64.8,59.5,28.91,North,0,0.0,0.0,83,0.09,OVC,FEW,0.09,0.0,WeatherDisplay:10.37,2013-08-10 18:13:00,
2013-08-10 20:18:00,64.8,59.5,28.91,North,0,0.0,0.0,83,0.09,OVC,FEW,0.09,0.0,WeatherDisplay:10.37,2013-08-10 18:18:00,
2013-08-10 20:23:00,64.0,59.4,28.88,North,0,0.0,0.0,85,0.09,OVC,FEW,0.09,0.0,WeatherDisplay:10.37,2013-08-10 18:23:00,
2013-08-10 20:28:00,63.3,58.7,28.88,North,0,0.0,0.0,85,0.09,OVC,FEW,0.09,0.0,WeatherDisplay:10.37,2013-08-10 18:28:00,
2013-08-10 20:33:00,63.0,58.7,28.91,North,0,0.0,0.0,86,0.09,OVC,FEW,0.09,0.0,WeatherDisplay:10.37,2013-08-10 18:33:00,
2013-08-10 20:38:00,62.4,58.5,28.91,North,0,0.0,0.0,87,0.00,OVC,FEW,0.09,0.0,WeatherDisplay:10.37,2013-08-10 18:38:00,
2013-08-10 20:43:00,62.4,58.5,28.91,North,0,0.0,0.0,87,0.00,OVC,FEW,0.09,0.0,WeatherDisplay:10.37,2013-08-10 18:43:00,
2013-08-10 20:48:00,64.8,57.0,28.91,NNW,330,6.9,7.1,76,0.00,OVC,FEW,0.09,0.0,WeatherDisplay:10.37,2013-08-10 18:48:00,
2013-08-10 20:53:00,65.5,57.0,28.94,NE,35,8.1,8.1,74,0.00,OVC,FEW,0.09,0.0,WeatherDisplay:10.37,2013-08-10 18:53:00,
2013-08-10 20:58:00,64.9,56.8,28.94,WNW,300,11.5,11.5,75,0.00,OVC,FEW,0.09,0.0,WeatherDisplay:10.37,2013-08-10 18:58:00,
2013-08-10 21:03:00,64.6,56.8,28.94,North,5,3.5,3.8,76,0.00,CLR,FEW,0.09,0.0,WeatherDisplay:10.37,2013-08-10 19:03:00,
2013-08-10 21:08:00,64.0,56.7,28.94,SE,140,2.3,2.4,77,0.00,CLR,FEW,0.09,0.0,WeatherDisplay:10.37,2013-08-10 19:08:00,
2013-08-10 21:13:00,63.9,56.5,28.94,ENE,65,3.5,3.8,77,0.00,CLR,FEW,0.09,0.0,WeatherDisplay:10.37,2013-08-10 19:13:00,
2013-08-10 21:18:00,63.9,56.5,28.94,ENE,65,3.5,3.8,77,0.00,CLR,FEW,0.09,0.0,WeatherDisplay:10.37,2013-08-10 19:18:00,
2013-08-10 21:23:00,63.5,56.5,28.94,SSW,195,3.5,4.0,78,0.00,CLR,FEW,0.09,0.0,WeatherDisplay:10.37,2013-08-10 19:23:00,
2013-08-10 21:28:00,63.5,56.5,28.94,SSW,195,3.5,4.0,78,0.00,CLR,FEW,0.09,0.0,WeatherDisplay:10.37,2013-08-10 19:28:00,
2013-08-10 21:33:00,63.5,56.5,28.91,SSW,195,3.5,4.0,78,0.00,CLR,FEW,0.09,0.0,WeatherDisplay:10.37,2013-08-10 19:33:00,
2013-08-10 21:38:00,63.5,56.5,28.91,SSW,195,3.5,4.0,78,0.00,CLR,FEW,0.09,0.0,WeatherDisplay:10.37,2013-08-10 19:38:00,
2013-08-10 21:43:00,63.5,56.5,28.91,SSW,195,3.5,4.0,78,0.00,CLR,FEW,0.09,0.0,WeatherDisplay:10.37,2013-08-10 19:43:00,
2013-08-10 21:48:00,63.5,56.5,28.91,SSW,195,3.5,4.0,78,0.00,CLR,FEW,0.09,0.0,WeatherDisplay:10.37,2013-08-10 19:48:00,
2013-08-10 21:53:00,63.5,56.5,28.91,SSW,195,3.5,4.0,78,0.00,CLR,FEW,0.09,0.0,WeatherDisplay:10.37,2013-08-10 19:53:00,
2013-08-10 21:58:00,63.5,56.5,28.91,SSW,195,3.5,4.0,78,0.00,CLR,FEW,0.09,0.0,WeatherDisplay:10.37,2013-08-10 19:58:00,
2013-08-10 22:03:00,63.5,56.5,28.91,SSW,195,3.5,4.0,78,0.00,CLR,FEW,0.09,0.0,WeatherDisplay:10.37,2013-08-10 20:03:00,
2013-08-10 22:08:00,63.5,56.5,28.91,SSW,195,3.5,4.0,78,0.00,CLR,FEW,0.09,0.0,WeatherDisplay:10.37,2013-08-10 20:08:00,
2013-08-10 22:13:00,63.5,56.5,28.91,SSW,195,3.5,4.0,78,0.00,CLR,FEW,0.09,0.0,WeatherDisplay:10.37,2013-08-10 20:13:00,
2013-08-10 22:18:00,63.5,56.5,28.91,SSW,195,3.5,4.0,78,0.00,CLR,FEW,0.09,0.0,WeatherDisplay:10.37,2013-08-10 20:18:00,
2013-08-10 22:23:00,63.5,56.5,28.94,SSW,195,3.5,4.0,78,0.00,CLR,FEW,0.09,0.0,WeatherDisplay:10.37,2013-08-10 20:23:00,
2013-08-10 22:28:00,63.5,56.5,28.94,SSW,195,3.5,4.0,78,0.00,CLR,FEW,0.09,0.0,WeatherDisplay:10.37,2013-08-10 20:28:00,
2013-08-10 22:33:00,63.5,56.5,28.91,SSW,195,3.5,4.0,78,0.00,CLR,FEW,0.09,0.0,WeatherDisplay:10.37,2013-08-10 20:33:00,
2013-08-10 22:38:00,63.5,56.5,28.91,SSW,195,3.5,4.0,78,0.00,CLR,FEW,0.09,0.0,WeatherDisplay:10.37,2013-08-10 20:38:00,
2013-08-10 22:43:00,63.5,56.5,28.91,SSW,195,3.5,4.0,78,0.00,CLR,FEW,0.09,0.0,WeatherDisplay:10.37,2013-08-10 20:43:00,
2013-08-10 22:48:00,63.5,56.5,28.91,SSW,195,3.5,4.0,78,0.00,CLR,FEW,0.09,0.0,WeatherDisplay:10.37,2013-08-10 20:48:00,
2013-08-10 22:53:00,56.8,54.5,28.94,NNE,15,3.5,0.0,92,0.00,CLR,FEW,0.09,0.0,WeatherDisplay:10.37,2013-08-10 20:53:00,
2013-08-10 22:58:00,56.8,54.5,28.94,NNE,15,0.0,0.0,92,0.00,CLR,FEW,0.09,0.0,WeatherDisplay:10.37,2013-08-10 20:58:00,
2013-08-10 23:03:00,56.7,54.7,28.94,NNW,335,0.0,0.0,93,0.00,CLR,FEW,0.09,0.0,WeatherDisplay:10.37,2013-08-10 21:03:00,
2013-08-10 23:08:00,56.5,54.5,28.94,NNW,335,0.0,0.0,93,0.00,CLR,FEW,0.09,0.0,WeatherDisplay:10.37,2013-08-10 21:08:00,
2013-08-10 23:13:00,56.5,54.8,28.94,NW,325,0.0,0.0,94,0.00,CLR,FEW,0.09,0.0,WeatherDisplay:10.37,2013-08-10 21:13:00,
2013-08-10 23:18:00,56.5,54.8,28.94,NW,325,0.0,0.0,94,0.00,CLR,FEW,0.09,0.0,WeatherDisplay:10.37,2013-08-10 21:18:00,
2013-08-10 23:23:00,56.3,54.6,28.94,NNW,335,0.0,0.0,94,0.00,CLR,FEW,0.09,0.0,WeatherDisplay:10.37,2013-08-10 21:23:00,
2013-08-10 23:28:00,56.1,54.4,28.91,NNW,340,0.0,0.0,94,0.00,CLR,FEW,0.09,0.0,WeatherDisplay:10.37,2013-08-10 21:28:00,
2013-08-10 23:33:00,56.1,54.4,28.91,NNW,345,0.0,0.0,94,0.00,CLR,FEW,0.09,0.0,WeatherDisplay:10.37,2013-08-10 21:33:00,
2013-08-10 23:38:00,55.8,54.1,28.91,North,5,0.0,0.0,94,0.00,CLR,FEW,0.09,0.0,WeatherDisplay:10.37,2013-08-10 21:38:00,
2013-08-10 23:43:00,55.8,54.1,28.91,North,5,0.0,0.0,94,0.00,CLR,FEW,0.09,0.0,WeatherDisplay:10.37,2013-08-10 21:43:00,
2013-08-10 23:48:00,55.6,53.9,28.91,North,350,0.0,0.0,94,0.00,CLR,FEW,0.09,0.0,WeatherDisplay:10.37,2013-08-10 21:48:00,
2013-08-10 23:53:00,55.4,53.7,28.91,NNW,340,0.0,0.0,94,0.00,CLR,FEW,0.09,0.0,WeatherDisplay:10.37,2013-08-10 21:53:00,
2013-08-10 23:58:00,55.4,53.7,28.91,NNW,330,0.0,0.0,94,0.00,CLR,FEW,0.09,0.0,WeatherDisplay:10.37,2013-08-10 21:58:00,